Location: Bannatyne
(13.0833°N, 59.5333°W)
Time: 05:46:26
(UTC+00:00)

Vanguard 2 Rocket - Pass Details

Date: 21 January 2020
Orbit: 554 x 3326 km, 32.9° (Epoch: 07 April)

Event Time Altitude Azimuth Distance (km) Brightness Sun altitude
Rises 13:30:26 0° 312° (NW) 4,165 9.8 38.8°
Reaches altitude 10° 13:33:10 10° 322° (NW) 3,514 9.5 39.3°
Maximum altitude 13:41:47 35° 26° (NNE) 2,904 9.7 40.9°
Drops below altitude 10° 13:55:37 10° 86° (E) 5,639 11.5 43.4°
Sets 14:01:26 0° 94° (E) 6,987 11.9 44.4°
